National Weather Service United States Department of Commerce

Latest Hourly Weather Roundup

TOPSWRTT 000
TTAA00 KICT 232012

Wichita AWIPS Roundup
National Weather Service Wichita KS
300 PM CDT FRI JUN 23 2017

....Central Kansas....
  
CITY           SKY/WX    TMP DP  RH WIND       PRES   REMARKS
RUSSELL        CLOUDY    72  45  37 N10       30.09F                  
SALINA         CLOUDY    81  45  28 N23G29    30.03F HX  80           
GREAT BEND     CLOUDY    73  49  42 N18       30.11R                  
ELLSWORTH      SUNNY     81  43  26 N12G23    30.06S                  
MCPHERSON      NOT AVBL                                               
HAYS           CLOUDY    72  48  42 N9G16     30.12F                  

....South Central Kansas....
  
CITY           SKY/WX    TMP DP  RH WIND       PRES   REMARKS
HUTCHINSON     LGT RAIN  72  50  45 N8        30.05R                  
NEWTON         CLOUDY    77  51  40 N15G24    30.04R                  
KINGMAN        CLOUDY    75  55  50 N15       30.05R                  
WICHITA (ICT)  LGT RAIN  77  52  41 N15       30.02R                  
JABARA ARPT    CLOUDY    81  54  39 N21G29    30.01R HX  81           
MCCONNELL AFB  CLOUDY    79  53  41 N21G26    30.00R                  
BENTON         FAIR      79  52  39 N9G22     30.02R                  
EL DORADO      FAIR      81  55  41 N21       30.00R HX  80           
AUGUSTA        FAIR      77  54  44 N14G23    30.01R                  
HARPER         NOT AVBL                                               
WELLINGTON     SUNNY     81  57  44 N21       30.00R HX  81           
WINFIELD       CLOUDY    82  53  36 N17G25    29.98R HX  81           
 
....Southeast Kansas....
  
CITY           SKY/WX    TMP DP  RH WIND       PRES   REMARKS
EUREKA         SUNNY     82  55  39 N17       29.98R HX  82           
IOLA           FAIR      84  53  34 N17G24    29.93R HX  83           
CHANUTE        SUNNY     86  53  32 N18G26    29.90S HX  84           
PARSONS        SUNNY     87  54  32 N12G21    29.89F HX  85           
COFFEYVILLE    SUNNY     88  58  36 NE15      29.86F HX  87           
INDEPENDENCE   SUNNY     86  50  28 NE20      29.90R HX  84           
FORT SCOTT     SUNNY     84  54  34 N14       29.90R HX  83           
PITTSBURG      SUNNY     82  66  57 NE8G18    29.89S HX  84           

....Western Kansas....
  
CITY           SKY/WX    TMP DP  RH WIND       PRES   REMARKS
GOODLAND       CLOUDY    66  46  48 NW7       30.20F                  
HILL CITY      MOSUNNY   79  46  31 NW12G20   30.12F                  
LIBERAL        SUNNY     74  51  44 N21G28    30.14F                  
GARDEN CITY    CLOUDY    71  45  39 NE15      30.16F                  
DODGE CITY     CLOUDY    73  48  41 NE22      30.13F                  
PRATT          CLOUDY    69  47  44 N15G23    30.09R                  
MEDICINE LODGE   N/A     78  51  38 N23G31    30.03R                  

....Northeast Kansas....
  
CITY           SKY/WX    TMP DP  RH WIND       PRES   REMARKS
CONCORDIA      MOSUNNY   78  46  32 N15G22    30.05R                  
TOPEKA         SUNNY     79  55  43 N16G28    29.98R                  
MANHATTAN      MOSUNNY   80  47  31 N12G18    30.01R                  
LAWRENCE       MOSUNNY   79  54  41 N20G29    29.96R                  
OLATHE         MOSUNNY   80  57  45 NW17G29   29.94S HX  80           
EMPORIA        MOSUNNY   80  55  42 N15G22    29.99R HX  80           

....Oklahoma....
  
CITY           SKY/WX    TMP DP  RH WIND       PRES   REMARKS
GAGE           SUNNY     86  48  26 NE20G29   30.02S HX  83           
PONCA CITY     MOSUNNY   87  50  27 NE16      29.90F HX  84           
BARTLESVILLE   SUNNY     87  54  32 NE8G17    29.89S HX  85           
TULSA          MOSUNNY   87  69  54 NE18G25   29.86R HX  91           
OKLAHOMA CITY  PTSUNNY   86  70  58 NE17G26   29.92R HX  90           

Note: "fair" indicates few or no clouds below 12,000 feet with no
significant weather and/or obstructions to visibility.